Flag for U.S.A. Weather past 2 weeks in Syracuse, New York, U.S.A.

Now
66 °F

Partly cloudy.


Feels Like: 66 °F
Forecast: 64 / 76 °F
Wind: 3 mph from East

Location: Syracuse Hancock International Airport

Current Time: Aug 22, 2014 at 2:07:27 AM

Latest Report: Aug 22, 2014 at 12:54 AM


Visibility: 10 mi

Pressure: 29.94 "Hg

Humidity: 96%

Dew point: 65 °F

Location of SyracuseLocation

Historic Weather in Syracuse — Graph

°F

Syracuse temperature yesterday

Maximum temperature yesterday: 78 °F (at 1:54 PM)
Minimum temperature yesterday: 64 °F (at 4:54 AM)
Average temperature yesterday: 70 °F

Past Weeks' High & Low Weather Summary

 TemperatureHumidityPressure
High86 °F (Aug 11, 12:54 PM)100% (Aug 21, 2:54 AM)30.17 "Hg (Aug 21, 2:54 AM)
Low50 °F (Aug 19, 6:54 AM)35% (Aug 11, 12:54 PM)29.70 "Hg (Aug 13, 5:54 AM)
Average68 °F73%29.94 "Hg
* Reported Aug 7 12:54 AM — Aug 22 12:54 AM, Syracuse, Weather by CustomWeather, © 2014

Note: Actual official high and low records may vary slightly from our data, if they occured in-between our weather recording intervals... More about our weather records

Advertising

Syracuse weather history for previous 24 hours

 ConditionsComfort  
Time TempWeatherWind HumidityBarometerVisibility
12:54 AM
Aug 22
66 °FPartly cloudy.3 mph96%29.94 "Hg10 mi
11:54 PM
Aug 21
68 °FMostly cloudy.No wind93%29.95 "Hg10 mi
10:54 PM68 °FMostly cloudy.No wind96%29.96 "Hg9 mi
10:01 PM70 °FLight rain. Mostly cloudy.6 mph88%29.97 "Hg8 mi
8:54 PM69 °FThunderstorms. Mostly cloudy.No wind93%29.94 "Hg10 mi
7:54 PM71 °FHeavy rain. Cloudy.13 mph93%29.93 "Hg7 mi
6:54 PM74 °FBroken clouds.3 mph85%29.92 "Hg10 mi
5:54 PM77 °FScattered clouds.5 mph74%29.91 "Hg10 mi
4:54 PM75 °FBroken clouds.6 mph79%29.91 "Hg10 mi
3:54 PM76 °FBroken clouds.8 mph77%29.93 "Hg10 mi
2:54 PM71 °FThunderstorms. Fog.10 mph90%29.92 "Hg5 mi
1:54 PM78 °FBroken clouds.5 mph74%29.93 "Hg10 mi
12:54 PM76 °FBroken clouds.5 mph80%29.95 "Hg10 mi
11:54 AM68 °FBroken clouds.5 mph93%29.96 "Hg10 mi
10:54 AM66 °FThunderstorms. Broken clouds.8 mph96%29.97 "Hg10 mi
9:54 AM75 °FCloudy.3 mph82%29.96 "Hg10 mi
8:54 AM71 °FBroken clouds.3 mph90%29.95 "Hg10 mi
7:54 AM66 °FFog.3 mph100%29.97 "Hg4 mi
6:54 AM65 °FFog.5 mph100%29.95 "Hg6 mi
5:54 AM65 °FFog.3 mph100%29.93 "Hg6 mi
4:54 AM64 °FFog.No wind100%29.92 "Hg5 mi
3:54 AM66 °FFog.5 mph96%29.92 "Hg6 mi
2:54 AM66 °FPassing clouds.5 mph100%29.92 "Hg8 mi
Weather by CustomWeather, © 2014

See weather overviewHow to use our weather pages